| time (UTC) | temp C | wind direction | speed KPH | gust KPH | rain 1hr cm | rain 24hr cm | rain mn cm | humidity % | barometer mb |
| 20260502232904 | 9 | 52 | 3.2 | 3.2 | 0.00 | 0.00 | 0.00 | 68 | 1017.4 |
| 20260502232405 | 9 | 52 | 1.6 | 3.2 | 0.00 | 0.00 | 0.00 | 68 | 1017.4 |
| 20260502231904 | 9 | 52 | 3.2 | 4.8 | 0.00 | 0.00 | 0.00 | 67 | 1017.3 |
| 20260502231405 | 10 | 52 | 0.0 | 0.0 | 0.00 | 0.00 | 0.00 | 67 | 1017.5 |
| 20260502230904 | 10 | 52 | 0.0 | 19.3 | 0.00 | 0.00 | 0.00 | 66 | 1017.5 |
| 20260502230404 | 10 | 52 | 1.6 | 1.6 | 0.00 | 0.00 | 0.00 | 66 | 1017.4 |
| 20260502225904 | 10 | 52 | 0.0 | 0.0 | 0.00 | 0.00 | 0.00 | 65 | 1017.5 |
| 20260502225404 | 10 | 52 | 0.0 | 1.6 | 0.00 | 0.00 | 0.00 | 65 | 1017.4 |
| 20260502224904 | 10 | 52 | 1.6 | 3.2 | 0.00 | 0.00 | 0.00 | 65 | 1017.5 |
| 20260502223904 | 11 | 52 | 0.0 | 0.0 | 0.00 | 0.00 | 0.00 | 64 | 1017.6 |
| 20260502223404 | 11 | 52 | 0.0 | 1.6 | 0.00 | 0.00 | 0.00 | 64 | 1017.6 |
| 20260502222905 | 11 | 52 | 0.0 | 3.2 | 0.00 | 0.00 | 0.00 | 62 | 1017.7 |
| 20260502222404 | 11 | 52 | 1.6 | 3.2 | 0.00 | 0.00 | 0.00 | 62 | 1017.6 |
| 20260502221404 | 11 | 28 | 3.2 | 4.8 | 0.00 | 0.00 | 0.00 | 61 | 1017.6 |
| 20260502220905 | 11 | 28 | 3.2 | 4.8 | 0.00 | 0.00 | 0.00 | 61 | 1017.6 |
| 20260502220404 | 11 | 28 | 3.2 | 4.8 | 0.00 | 0.00 | 0.00 | 61 | 1017.7 |
| 20260502215905 | 11 | 28 | 1.6 | 4.8 | 0.00 | 0.00 | 0.00 | 60 | 1017.7 |
| 20260502215404 | 11 | 28 | 3.2 | 4.8 | 0.00 | 0.00 | 0.00 | 60 | 1017.7 |
| 20260502214904 | 11 | 28 | 4.8 | 4.8 | 0.00 | 0.00 | 0.00 | 60 | 1017.7 |
| 20260502214405 | 11 | 53 | 4.8 | 8.0 | 0.00 | 0.00 | 0.00 | 60 | 1017.6 |
| 20260502213905 | 11 | 59 | 3.2 | 4.8 | 0.00 | 0.00 | 0.00 | 60 | 1017.7 |
| 20260502213405 | 12 | 59 | 3.2 | 4.8 | 0.00 | 0.00 | 0.00 | 60 | 1017.7 |
| 20260502212904 | 12 | 59 | 3.2 | 4.8 | 0.00 | 0.00 | 0.00 | 59 | 1017.6 |
| 20260502212404 | 12 | 57 | 3.2 | 4.8 | 0.00 | 0.00 | 0.00 | 59 | 1017.6 |
| 20260502211904 | 12 | 60 | 4.8 | 4.8 | 0.00 | 0.00 | 0.00 | 59 | 1017.7 |
| 20260502211404 | 12 | 61 | 3.2 | 4.8 | 0.00 | 0.00 | 0.00 | 59 | 1017.7 |
| 20260502210904 | 12 | 51 | 3.2 | 4.8 | 0.00 | 0.00 | 0.00 | 59 | 1017.7 |
| 20260502210404 | 12 | 64 | 3.2 | 4.8 | 0.00 | 0.00 | 0.00 | 58 | 1017.8 |
| 20260502205405 | 12 | 67 | 3.2 | 4.8 | 0.00 | 0.00 | 0.00 | 58 | 1017.8 |
| 20260502204404 | 12 | 60 | 3.2 | 4.8 | 0.00 | 0.00 | 0.00 | 57 | 1017.9 |
| 20260502203904 | 13 | 61 | 3.2 | 4.8 | 0.00 | 0.00 | 0.00 | 56 | 1017.9 |
| 20260502203405 | 13 | 65 | 3.2 | 4.8 | 0.00 | 0.00 | 0.00 | 56 | 1017.9 |
| 20260502202904 | 13 | 65 | 3.2 | 4.8 | 0.00 | 0.00 | 0.00 | 55 | 1017.9 |
| 20260502202404 | 13 | 65 | 3.2 | 4.8 | 0.00 | 0.00 | 0.00 | 55 | 1018.0 |
| 20260502201904 | 13 | 65 | 3.2 | 4.8 | 0.00 | 0.00 | 0.00 | 54 | 1018.0 |
| 20260502201418 | 13 | 65 | 1.6 | 4.8 | 0.00 | 0.00 | 0.00 | 54 | 1018.0 |
| 20260502200405 | 14 | 65 | 1.6 | 1.6 | 0.00 | 0.00 | 0.00 | 53 | 1017.9 |
| 20260502195404 | 15 | 65 | 1.6 | 3.2 | 0.00 | 0.00 | 0.00 | 53 | 1018.0 |
| 20260502194404 | 15 | 65 | 0.0 | 1.6 | 0.00 | 0.00 | 0.00 | 52 | 1018.0 |
| 20260502193404 | 15 | 65 | 0.0 | 0.0 | 0.00 | 0.00 | 0.00 | 49 | 1018.0 |
| 20260502192904 | 16 | 65 | 0.0 | 0.0 | 0.00 | 0.00 | 0.00 | 49 | 1017.9 |
| 20260502192404 | 16 | 65 | 0.0 | 0.0 | 0.00 | 0.00 | 0.00 | 49 | 1018.0 |
| 20260502191904 | 16 | 65 | 0.0 | 0.0 | 0.00 | 0.00 | 0.00 | 49 | 1017.9 |
| 20260502191404 | 16 | 65 | 1.6 | 3.2 | 0.00 | 0.00 | 0.00 | 48 | 1017.8 |
| 20260502190904 | 16 | 65 | 1.6 | 4.8 | 0.00 | 0.00 | 0.00 | 48 | 1017.8 |
| 20260502190405 | 17 | 65 | 3.2 | 4.8 | 0.00 | 0.00 | 0.00 | 47 | 1017.7 |
| 20260502185404 | 17 | 65 | 3.2 | 4.8 | 0.00 | 0.00 | 0.00 | 46 | 1017.7 |
| 20260502184904 | 17 | 71 | 1.6 | 4.8 | 0.00 | 0.00 | 0.00 | 46 | 1017.7 |
| 20260502184404 | 18 | 24 | 1.6 | 3.2 | 0.00 | 0.00 | 0.00 | 46 | 1017.7 |
| 20260502183904 | 18 | 24 | 1.6 | 4.8 | 0.00 | 0.00 | 0.00 | 45 | 1017.8 |
| 20260502183404 | 18 | 24 | 1.6 | 3.2 | 0.00 | 0.00 | 0.00 | 44 | 1017.7 |
| 20260502182905 | 19 | 24 | 0.0 | 0.0 | 0.00 | 0.00 | 0.00 | 44 | 1017.7 |
| 20260502182404 | 19 | 24 | 0.0 | 0.0 | 0.00 | 0.00 | 0.00 | 43 | 1017.7 |
| 20260502181905 | 20 | 24 | 0.0 | 0.0 | 0.00 | 0.00 | 0.00 | 43 | 1017.6 |
| 20260502181404 | 20 | 24 | 0.0 | 0.0 | 0.00 | 0.00 | 0.00 | 42 | 1017.6 |
| 20260502180904 | 20 | 24 | 0.0 | 0.0 | 0.00 | 0.00 | 0.00 | 42 | 1017.5 |
| 20260502180405 | 20 | 24 | 0.0 | 0.0 | 0.00 | 0.00 | 0.00 | 41 | 1017.5 |
| 20260502163904 | 24 | 13 | 6.4 | 11.3 | 0.00 | 0.00 | 0.00 | 30 | 1017.7 |
| 20260502163404 | 24 | 11 | 4.8 | 12.9 | 0.00 | 0.00 | 0.00 | 29 | 1017.7 |
| 20260502162904 | 25 | 21 | 6.4 | 19.3 | 0.00 | 0.00 | 0.00 | 29 | 1017.8 |
| 20260502162404 | 25 | 31 | 3.2 | 12.9 | 0.00 | 0.00 | 0.00 | 29 | 1017.8 |
| 20260502161904 | 25 | 5 | 3.2 | 4.8 | 0.00 | 0.00 | 0.00 | 28 | 1017.9 |
| 20260502160404 | 26 | 30 | 4.8 | 16.1 | 0.00 | 0.00 | 0.00 | 27 | 1018.1 |
| 20260502151904 | 27 | 19 | 6.4 | 12.9 | 0.00 | 0.00 | 0.00 | 26 | 1018.4 |
| 20260502151404 | 27 | 30 | 3.2 | 11.3 | 0.00 | 0.00 | 0.00 | 26 | 1018.5 |
| 20260502150917 | 27 | 32 | 11.3 | 19.3 | 0.00 | 0.00 | 0.00 | 25 | 1018.5 |
| 20260502130404 | 26 | 339 | 6.4 | 12.9 | 0.00 | 0.00 | 0.00 | 28 | 1019.7 |
| 20260502123404 | 26 | 88 | 4.8 | 19.3 | 0.00 | 0.00 | 0.00 | 29 | 1019.9 |
| 20260502122904 | 25 | 36 | 3.2 | 9.7 | 0.00 | 0.00 | 0.00 | 29 | 1020.0 |
| 20260502122404 | 25 | 46 | 9.7 | 19.3 | 0.00 | 0.00 | 0.00 | 29 | 1020.1 |
| 20260502121904 | 25 | 28 | 8.0 | 19.3 | 0.00 | 0.00 | 0.00 | 32 | 1020.2 |
| 20260502121404 | 25 | 53 | 3.2 | 12.9 | 0.00 | 0.00 | 0.00 | 31 | 1020.3 |
| 20260502120404 | 25 | 15 | 3.2 | 11.3 | 0.00 | 0.00 | 0.00 | 34 | 1020.5 |
| 20260502114405 | 23 | 26 | 0.0 | 4.8 | 0.00 | 0.00 | 0.00 | 35 | 1020.8 |
| 20260502112904 | 23 | 346 | 3.2 | 11.3 | 0.00 | 0.00 | 0.00 | 36 | 1021.0 |
| 20260502112404 | 23 | 1 | 8.0 | 12.9 | 0.00 | 0.00 | 0.00 | 36 | 1021.0 |
| 20260502111405 | 23 | 323 | 3.2 | 4.8 | 0.00 | 0.00 | 0.00 | 36 | 1021.1 |
| 20260502110404 | 23 | 9 | 4.8 | 9.7 | 0.00 | 0.00 | 0.00 | 36 | 1021.3 |
| 20260502105904 | 23 | 351 | 3.2 | 11.3 | 0.00 | 0.00 | 0.00 | 36 | 1021.3 |
| 20260502105404 | 23 | 43 | 3.2 | 12.9 | 0.00 | 0.00 | 0.00 | 37 | 1021.5 |
| 20260502104904 | 23 | 0 | 4.8 | 8.0 | 0.00 | 0.00 | 0.00 | 37 | 1021.5 |
| 20260502104404 | 23 | 19 | 3.2 | 4.8 | 0.00 | 0.00 | 0.00 | 37 | 1021.6 |
| 20260502103904 | 22 | 33 | 4.8 | 16.1 | 0.00 | 0.00 | 0.00 | 38 | 1021.7 |
| 20260502103404 | 22 | 29 | 3.2 | 8.0 | 0.00 | 0.00 | 0.00 | 38 | 1021.7 |
| 20260502102904 | 22 | 19 | 3.2 | 8.0 | 0.00 | 0.00 | 0.00 | 39 | 1021.7 |
| 20260502101905 | 22 | 1 | 3.2 | 8.0 | 0.00 | 0.00 | 0.00 | 38 | 1021.9 |
| 20260502101404 | 22 | 24 | 4.8 | 9.7 | 0.00 | 0.00 | 0.00 | 38 | 1021.9 |
| 20260502100904 | 22 | 18 | 9.7 | 19.3 | 0.00 | 0.00 | 0.00 | 39 | 1021.9 |
| 20260502100411 | 22 | 14 | 8.0 | 12.9 | 0.00 | 0.00 | 0.00 | 40 | 1021.9 |
| 20260502091404 | 21 | 330 | 3.2 | 9.7 | 0.00 | 0.00 | 0.00 | 44 | 1022.6 |
| 20260502090904 | 21 | 307 | 3.2 | 8.0 | 0.00 | 0.00 | 0.00 | 45 | 1022.6 |
| 20260502090404 | 21 | 251 | 3.2 | 9.7 | 0.00 | 0.00 | 0.00 | 47 | 1022.7 |
| 20260502071404 | 13 | 54 | 1.6 | 4.8 | 0.00 | 0.00 | 0.00 | 72 | 1023.4 |
| 20260502070904 | 13 | 54 | 1.6 | 4.8 | 0.00 | 0.00 | 0.00 | 70 | 1023.5 |
| 20260502070404 | 12 | 54 | 0.0 | 1.6 | 0.00 | 0.00 | 0.00 | 74 | 1023.5 |
| 20260502065905 | 12 | 54 | 3.2 | 4.8 | 0.00 | 0.00 | 0.00 | 76 | 1023.5 |
| 20260502065404 | 11 | 53 | 1.6 | 4.8 | 0.00 | 0.00 | 0.00 | 80 | 1023.6 |
| 20260502064904 | 11 | 53 | 3.2 | 4.8 | 0.00 | 0.00 | 0.00 | 82 | 1023.6 |
| 20260502064405 | 10 | 57 | 3.2 | 4.8 | 0.00 | 0.00 | 0.00 | 86 | 1023.6 |
| 20260502063904 | 9 | 44 | 3.2 | 4.8 | 0.00 | 0.00 | 0.00 | 86 | 1023.7 |
| 20260502063405 | 8 | 44 | 1.6 | 4.8 | 0.00 | 0.00 | 0.00 | 87 | 1023.6 |
| 20260502062904 | 8 | 52 | 3.2 | 4.8 | 0.00 | 0.00 | 0.00 | 89 | 1023.7 |
| 20260502062404 | 7 | 52 | 1.6 | 4.8 | 0.00 | 0.00 | 0.00 | 89 | 1023.8 |
| 20260502061904 | 7 | 52 | 1.6 | 3.2 | 0.00 | 0.00 | 0.00 | 91 | 1023.8 |
| 20260502060904 | 7 | 51 | 0.0 | 1.6 | 0.00 | 0.00 | 0.00 | 91 | 1023.8 |
| 20260502060404 | 6 | 51 | 0.0 | 0.0 | 0.00 | 0.00 | 0.00 | 91 | 1023.9 |
| 20260502055904 | 6 | 51 | 0.0 | 0.0 | 0.00 | 0.00 | 0.00 | 91 | 1023.9 |
| 20260502055404 | 6 | 51 | 0.0 | 0.0 | 0.00 | 0.00 | 0.00 | 91 | 1023.9 |
| 20260502053904 | 5 | 51 | 0.0 | 1.6 | 0.00 | 0.00 | 0.00 | 91 | 1023.9 |
| 20260502052905 | 5 | 51 | 0.0 | 0.0 | 0.00 | 0.00 | 0.00 | 90 | 1023.9 |
| 20260502052404 | 5 | 51 | 0.0 | 0.0 | 0.00 | 0.00 | 0.00 | 90 | 1023.9 |
| 20260502051905 | 5 | 51 | 0.0 | 0.0 | 0.00 | 0.00 | 0.00 | 90 | 1023.9 |
| 20260502051405 | 5 | 51 | 0.0 | 0.0 | 0.00 | 0.00 | 0.00 | 90 | 1023.9 |
| 20260502050904 | 4 | 51 | 0.0 | 0.0 | 0.00 | 0.00 | 0.00 | 89 | 1023.9 |
| 20260502050405 | 4 | 51 | 0.0 | 0.0 | 0.00 | 0.00 | 0.00 | 89 | 1023.9 |
| 20260502045908 | 4 | 51 | 0.0 | 0.0 | 0.00 | 0.00 | 0.00 | 89 | 1023.9 |
| 20260502045405 | 4 | 51 | 0.0 | 0.0 | 0.00 | 0.00 | 0.00 | 89 | 1023.9 |
| 20260502044904 | 4 | 51 | 0.0 | 0.0 | 0.00 | 0.00 | 0.00 | 89 | 1023.8 |
| 20260502044405 | 4 | 51 | 0.0 | 0.0 | 0.00 | 0.00 | 0.00 | 89 | 1023.8 |
| 20260502043904 | 4 | 51 | 0.0 | 0.0 | 0.00 | 0.00 | 0.00 | 89 | 1023.7 |
| 20260502043404 | 4 | 51 | 0.0 | 0.0 | 0.00 | 0.00 | 0.00 | 89 | 1023.6 |
| 20260502042904 | 4 | 52 | 0.0 | 0.0 | 0.00 | 0.00 | 0.00 | 89 | 1023.6 |
| 20260502042404 | 4 | 52 | 0.0 | 0.0 | 0.00 | 0.00 | 0.00 | 89 | 1023.6 |
| 20260502041904 | 4 | 52 | 0.0 | 1.6 | 0.00 | 0.00 | 0.00 | 89 | 1023.5 |
| 20260502041404 | 4 | 52 | 0.0 | 1.6 | 0.00 | 0.00 | 0.00 | 88 | 1023.5 |
| 20260502040904 | 4 | 52 | 0.0 | 3.2 | 0.00 | 0.00 | 0.00 | 89 | 1023.5 |
| 20260502040404 | 4 | 52 | 1.6 | 3.2 | 0.00 | 0.00 | 0.00 | 88 | 1023.5 |
| 20260502035904 | 4 | 52 | 1.6 | 3.2 | 0.00 | 0.00 | 0.00 | 88 | 1023.5 |
| 20260502035404 | 4 | 52 | 0.0 | 0.0 | 0.00 | 0.00 | 0.00 | 88 | 1023.5 |
| 20260502034905 | 4 | 52 | 0.0 | 0.0 | 0.00 | 0.00 | 0.00 | 88 | 1023.5 |
| 20260502034404 | 4 | 52 | 0.0 | 3.2 | 0.00 | 0.00 | 0.00 | 88 | 1023.5 |
| 20260502033905 | 4 | 52 | 1.6 | 3.2 | 0.00 | 0.00 | 0.00 | 88 | 1023.5 |
| 20260502033404 | 4 | 52 | 3.2 | 4.8 | 0.00 | 0.00 | 0.00 | 88 | 1023.5 |
| 20260502032904 | 4 | 51 | 3.2 | 4.8 | 0.00 | 0.00 | 0.00 | 87 | 1023.5 |
| 20260502032404 | 4 | 51 | 3.2 | 4.8 | 0.00 | 0.00 | 0.00 | 87 | 1023.5 |
| 20260502031905 | 4 | 51 | 1.6 | 3.2 | 0.00 | 0.00 | 0.00 | 87 | 1023.5 |
| 20260502030404 | 4 | 51 | 0.0 | 0.0 | 0.00 | 0.00 | 0.00 | 87 | 1023.6 |
| 20260502025904 | 4 | 51 | 0.0 | 0.0 | 0.00 | 0.00 | 0.00 | 87 | 1023.6 |
| 20260502025405 | 5 | 51 | 0.0 | 0.0 | 0.00 | 0.00 | 0.00 | 86 | 1023.6 |
| 20260502024904 | 5 | 51 | 0.0 | 0.0 | 0.00 | 0.00 | 0.00 | 86 | 1023.5 |
| 20260502024405 | 5 | 51 | 0.0 | 0.0 | 0.00 | 0.00 | 0.00 | 86 | 1023.6 |
| 20260502023904 | 5 | 51 | 1.6 | 3.2 | 0.00 | 0.00 | 0.00 | 86 | 1023.5 |
| 20260502022904 | 5 | 51 | 1.6 | 3.2 | 0.00 | 0.00 | 0.00 | 86 | 1023.5 |
| 20260502022405 | 5 | 51 | 1.6 | 3.2 | 0.00 | 0.00 | 0.00 | 86 | 1023.5 |
| 20260502021904 | 5 | 51 | 0.0 | 0.0 | 0.00 | 0.00 | 0.00 | 86 | 1023.6 |
| 20260502021404 | 5 | 51 | 0.0 | 0.0 | 0.00 | 0.00 | 0.00 | 85 | 1023.5 |
| 20260502020904 | 5 | 51 | 0.0 | 0.0 | 0.00 | 0.00 | 0.00 | 85 | 1023.5 |
| 20260502020404 | 5 | 51 | 0.0 | 0.0 | 0.00 | 0.00 | 0.00 | 85 | 1023.4 |
| 20260502015904 | 5 | 51 | 0.0 | 0.0 | 0.00 | 0.00 | 0.00 | 85 | 1023.5 |
| 20260502015404 | 5 | 51 | 0.0 | 1.6 | 0.00 | 0.00 | 0.00 | 85 | 1023.5 |
| 20260502014404 | 5 | 51 | 0.0 | 3.2 | 0.00 | 0.00 | 0.00 | 85 | 1023.4 |
| 20260502013904 | 5 | 51 | 1.6 | 3.2 | 0.00 | 0.00 | 0.00 | 85 | 1023.4 |
| 20260502012904 | 5 | 51 | 0.0 | 0.0 | 0.00 | 0.00 | 0.00 | 85 | 1023.4 |
| 20260502012405 | 6 | 51 | 0.0 | 0.0 | 0.00 | 0.00 | 0.00 | 85 | 1023.4 |
| 20260502011904 | 6 | 51 | 0.0 | 0.0 | 0.00 | 0.00 | 0.00 | 85 | 1023.5 |
| 20260502011404 | 6 | 51 | 0.0 | 0.0 | 0.00 | 0.00 | 0.00 | 85 | 1023.4 |
| 20260502010904 | 6 | 51 | 0.0 | 0.0 | 0.00 | 0.00 | 0.00 | 85 | 1023.4 |
| 20260502010405 | 6 | 51 | 0.0 | 1.6 | 0.00 | 0.00 | 0.00 | 85 | 1023.5 |
| 20260502005904 | 6 | 51 | 1.6 | 4.8 | 0.00 | 0.00 | 0.00 | 85 | 1023.5 |
| 20260502005405 | 6 | 51 | 3.2 | 4.8 | 0.00 | 0.00 | 0.00 | 85 | 1023.5 |
| 20260502004904 | 6 | 51 | 3.2 | 4.8 | 0.00 | 0.00 | 0.00 | 84 | 1023.5 |
| 20260502004404 | 6 | 51 | 3.2 | 4.8 | 0.00 | 0.00 | 0.00 | 84 | 1023.5 |
| 20260502003404 | 6 | 50 | 1.6 | 4.8 | 0.00 | 0.00 | 0.00 | 84 | 1023.5 |
| 20260502002904 | 6 | 50 | 1.6 | 4.8 | 0.00 | 0.00 | 0.00 | 83 | 1023.6 |
| 20260502002404 | 6 | 50 | 3.2 | 4.8 | 0.00 | 0.00 | 0.00 | 83 | 1023.6 |
| 20260502001904 | 6 | 50 | 3.2 | 4.8 | 0.00 | 0.00 | 0.00 | 82 | 1023.6 |
| 20260502001404 | 6 | 50 | 3.2 | 4.8 | 0.00 | 0.00 | 0.00 | 82 | 1023.7 |
| 20260502000904 | 6 | 50 | 3.2 | 4.8 | 0.00 | 0.00 | 0.00 | 81 | 1023.7 |
| 20260502000404 | 6 | 50 | 1.6 | 3.2 | 0.00 | 0.00 | 0.00 | 81 | 1023.7 |
| 20260501235905 | 6 | 50 | 0.0 | 0.0 | 0.00 | 0.00 | 0.00 | 81 | 1023.7 |
| 20260501235404 | 7 | 50 | 0.0 | 0.0 | 0.00 | 0.00 | 0.00 | 81 | 1023.8 |
| 20260501234904 | 7 | 50 | 0.0 | 0.0 | 0.00 | 0.00 | 0.00 | 80 | 1023.8 |
| 20260501234405 | 7 | 50 | 0.0 | 0.0 | 0.00 | 0.00 | 0.00 | 80 | 1023.8 |
| 20260501233908 | 7 | 50 | 0.0 | 0.0 | 0.00 | 0.00 | 0.00 | 80 | 1023.8 |
| 20260501233404 | 7 | 50 | 0.0 | 25.7 | 0.00 | 0.00 | 0.00 | 80 | 1023.8 |